K42C Weather Reports


Display with metric or nautical units.
time (UTC)temp
F
wind
direction
speed
MPH
gust
MPH
rain 1hr
in
rain 24hr
in
rain mn
in
humidity
%
barometer
mb
20260901205424 88 219 7.0 5.0 0.00 0.03 0.00 67 974.0
20260901204746 88 165 9.0 9.0 0.00 0.03 0.00 66 973.8
20260901204244 88 231 7.0 7.0 0.00 0.03 0.00 65 973.9
20260901204106 88 231 7.0 7.0 0.00 0.03 0.00 65 973.9
20260901203659 88 245 7.0 6.0 0.00 0.03 0.00 65 973.9
20260901203428 88 245 7.0 6.0 0.00 0.03 0.00 65 973.9
20260901202748 88 242 5.0 0.0 0.00 0.03 0.00 66 973.8
20260901202110 88 222 5.0 4.0 0.00 0.03 0.00 66 973.8
20260901201430 89 197 7.0 11.0 0.00 0.03 0.00 66 973.9
20260901200753 89 221 8.0 11.0 0.00 0.03 0.00 65 974.0
20260901200112 89 200 7.0 3.0 0.00 0.03 0.00 66 974.0
20260901195435 89 195 7.0 3.0 0.00 0.03 0.00 65 974.0
20260901194754 89 158 5.0 5.0 0.00 0.03 0.00 68 973.9
20260901194117 89 194 2.0 4.0 0.00 0.03 0.00 66 974.0
20260901193436 89 219 7.0 6.0 0.00 0.03 0.00 67 974.2
20260901192759 88 179 2.0 7.0 0.00 0.03 0.00 67 974.4
20260901192118 88 259 4.0 4.0 0.00 0.03 0.00 72 974.4
20260901191441 87 284 9.0 5.0 0.00 0.03 0.00 71 974.5
20260901190801 87 239 7.0 4.0 0.00 0.03 0.00 73 974.5
20260901190123 87 243 5.0 0.0 0.00 0.03 0.00 74 974.4
20260901185443 87 207 6.0 2.0 0.00 0.03 0.00 72 974.5
20260901184806 88 245 4.0 6.0 0.00 0.03 0.00 71 974.5
20260901183448 87 160 0.0 9.0 0.00 0.03 0.00 77 974.6
20260901182807 86 240 7.0 3.0 0.00 0.03 0.00 77 974.6
20260901182130 86 177 8.0 7.0 0.00 0.03 0.00 78 974.6
20260901181449 86 236 1.0 0.0 0.00 0.03 0.00 79 974.7
20260901180812 86 197 6.0 0.0 0.00 0.03 0.00 80 974.7
20260901180132 86 194 6.0 6.0 0.00 0.03 0.00 78 974.7
20260901175455 86 188 6.0 5.0 0.00 0.03 0.00 78 974.7
20260901174814 86 304 5.0 6.0 0.00 0.03 0.00 81 974.9
20260901174137 85 184 2.0 6.0 0.00 0.03 0.00 85 974.8
20260901173456 84 194 4.0 5.0 0.00 0.03 0.00 84 974.9
20260901172819 85 245 6.0 5.0 0.00 0.03 0.00 84 974.9
20260901172139 85 219 4.0 3.0 0.00 0.03 0.00 82 974.9
20260901171501 85 214 6.0 6.0 0.00 0.03 0.00 83 974.8
20260901170821 85 262 3.0 5.0 0.00 0.03 0.00 86 974.8
20260901170144 85 205 5.0 5.0 0.00 0.03 0.00 86 975.0
20260901165503 84 180 6.0 9.0 0.00 0.03 0.00 88 975.0
20260901164826 83 228 9.0 7.0 0.00 0.03 0.00 90 975.2
20260901164146 83 277 4.0 5.0 0.00 0.03 0.00 91 975.1
20260901163509 83 153 6.0 3.0 0.00 0.03 0.00 92 975.2
20260901162828 82 132 5.0 8.0 0.00 0.03 0.00 92 975.2
20260901162151 82 231 3.0 5.0 0.00 0.03 0.00 94 975.3
20260901161511 82 176 7.0 9.0 0.00 0.03 0.00 93 975.3
20260901160834 81 173 4.0 5.0 0.00 0.03 0.00 94 975.3
20260901160153 81 172 3.0 3.0 0.00 0.03 0.00 95 975.1
20260901155516 80 128 3.0 5.0 0.00 0.03 0.00 97 975.3
20260901154835 80 186 0.0 6.0 0.00 0.03 0.00 97 975.2
20260901154158 80 194 5.0 5.0 0.00 0.03 0.00 98 975.3
20260901153518 79 149 4.0 0.0 0.00 0.03 0.00 100 975.3
20260901152841 79 98 0.0 0.0 0.00 0.03 0.00 100 975.4
20260901151523 77 122 0.0 0.0 0.00 0.03 0.00 100 975.7
20260901150843 77 122 0.0 0.0 0.00 0.03 0.00 100 975.7
20260901150206 76 122 0.0 0.0 0.00 0.03 0.00 100 975.8
20260901145526 76 122 0.0 0.0 0.00 0.03 0.00 100 976.0
20260901144849 75 131 0.0 0.0 0.00 0.03 0.00 100 976.0
20260901144207 74 131 0.0 0.0 0.00 0.03 0.00 100 976.3
20260901142851 73 131 0.0 0.0 0.00 0.03 0.00 100 976.6
20260901134857 72 197 0.0 0.0 0.00 0.03 0.00 100 977.0
20260901134221 72 197 0.0 0.0 0.00 0.03 0.00 100 976.9
20260901133540 72 197 0.0 0.0 0.00 0.03 0.00 100 976.8
20260901130906 71 359 0.0 0.0 0.00 0.03 0.00 100 976.9
20260901130228 71 359 0.0 0.0 0.00 0.03 0.00 100 976.9
20260901124912 70 359 0.0 0.0 0.00 0.03 0.00 100 977.0
20260901124231 70 359 0.0 0.0 0.00 0.03 0.00 100 976.9
20260901120919 70 359 0.0 0.0 0.00 0.03 0.00 100 976.8
20260901120239 70 359 0.0 0.0 0.00 0.03 0.00 100 976.8
20260901115602 70 359 0.0 0.0 0.00 0.03 0.00 100 976.6
20260901112927 69 359 0.0 0.0 0.00 0.03 0.00 100 976.4
20260901112245 69 359 0.0 0.0 0.00 0.03 0.00 100 976.4
20260901111609 69 359 0.0 0.0 0.00 0.03 0.00 100 976.2
20260901110252 69 359 0.0 0.0 0.00 0.03 0.00 100 976.1
20260901105611 69 359 0.0 0.0 0.00 0.03 0.00 100 976.0
20260901103721 68 359 0.0 0.0 0.00 0.03 0.00 100 976.0
20260901103617 68 359 0.0 0.0 0.00 0.03 0.00 100 976.0
20260901103023 68 359 0.0 0.0 0.00 0.03 0.00 100 976.0
20260901102936 68 359 0.0 0.0 0.00 0.03 0.00 100 976.0
20260901101756 68 359 0.0 0.0 0.00 0.03 0.00 100 976.0
20260901101619 68 359 0.0 0.0 0.00 0.03 0.00 100 976.0
20260901101100 68 359 0.0 0.0 0.00 0.03 0.00 100 976.0
20260901100942 68 359 0.0 0.0 0.00 0.03 0.00 100 976.0
20260901095728 68 359 0.0 0.0 0.00 0.03 0.00 100 976.0
20260901095624 68 359 0.0 0.0 0.00 0.03 0.00 100 976.0
20260901093804 69 359 0.0 0.0 0.00 0.03 0.00 100 976.0
20260901093626 69 359 0.0 0.0 0.00 0.03 0.00 100 976.0
20260901092949 69 359 0.0 0.0 0.00 0.03 0.00 100 975.9
20260901090513 69 359 0.0 0.0 0.00 0.03 0.00 100 975.9
20260901090314 69 359 0.0 0.0 0.00 0.03 0.00 100 975.9
20260901081004 69 359 0.0 0.0 0.00 0.03 0.00 100 975.7
20260901080450 69 359 0.0 0.0 0.00 0.03 0.00 100 975.7
20260901080323 69 359 0.0 0.0 0.00 0.03 0.00 100 975.7
20260901075945 69 359 0.0 0.0 0.00 0.03 0.00 100 975.7
20260901075646 69 359 0.0 0.0 0.00 0.03 0.00 100 975.7
20260901075116 69 359 0.0 0.0 0.00 0.03 0.00 100 975.8
20260901075005 69 359 0.0 0.0 0.00 0.03 0.00 100 975.8
20260901073836 69 359 0.0 0.0 0.00 0.03 0.00 100 975.7
20260901073648 69 359 0.0 0.0 0.00 0.03 0.00 100 975.7
20260901071140 70 359 0.0 0.0 0.00 0.03 0.00 100 975.6
20260901071013 70 359 0.0 0.0 0.00 0.03 0.00 100 975.6
20260901070500 70 359 0.0 0.0 0.00 0.03 0.00 100 975.7
20260901070336 70 359 0.0 0.0 0.00 0.03 0.00 100 975.7
20260901064443 70 359 0.0 0.0 0.00 0.03 0.00 100 975.6
20260901064337 70 359 0.0 0.0 0.00 0.03 0.00 100 975.6
20260901063821 70 359 0.0 0.0 0.00 0.03 0.00 100 975.7
20260901063700 70 359 0.0 0.0 0.00 0.03 0.00 100 975.7
20260901063020 70 359 0.0 0.0 0.00 0.03 0.00 100 975.7
20260901062533 70 359 0.0 0.0 0.00 0.03 0.00 100 975.8
20260901062343 70 359 0.0 0.0 0.00 0.03 0.00 100 975.8
20260901061247 70 359 0.0 0.0 0.00 0.03 0.00 100 975.8
20260901061025 70 359 0.0 0.0 0.00 0.03 0.00 100 975.8
20260901060602 70 359 0.0 0.0 0.00 0.03 0.00 100 975.8
20260901060344 70 359 0.0 0.0 0.00 0.03 0.00 100 975.8
20260901055919 70 359 0.0 0.0 0.00 0.03 0.00 100 975.9
20260901055823 70 359 0.0 0.0 0.00 0.03 0.00 100 975.9
20260901055707 70 359 0.0 0.0 0.00 0.03 0.00 100 975.9
20260901055138 71 359 0.0 0.0 0.00 0.03 0.00 100 975.8
20260901055027 71 359 0.0 0.0 0.00 0.03 0.00 100 975.8
20260901054555 71 359 0.0 0.0 0.00 0.03 0.00 100 976.0
20260901054350 71 359 0.0 0.0 0.00 0.03 0.00 100 976.0
20260901053827 71 359 0.0 0.0 0.00 0.03 0.00 100 975.9
20260901053709 71 359 0.0 0.0 0.00 0.03 0.00 100 975.9
20260901053211 70 359 0.0 0.0 0.00 0.03 0.00 100 975.9
20260901053032 70 359 0.0 0.0 0.00 0.03 0.00 100 975.9
20260901052557 71 359 0.0 0.0 0.00 0.03 0.00 100 976.0
20260901052352 71 359 0.0 0.0 0.00 0.03 0.00 100 976.0
20260901051822 71 359 0.0 0.0 0.00 0.03 0.00 100 975.9
20260901051714 71 359 0.0 0.0 0.00 0.03 0.00 100 975.9
20260901050357 71 359 0.0 0.0 0.00 0.03 0.00 100 975.9
20260901045907 71 359 0.0 0.0 0.00 0.03 0.00 100 975.9
20260901045716 71 359 0.0 0.0 0.00 0.03 0.00 100 975.9
20260901045155 71 359 0.0 0.0 0.00 0.03 0.00 100 975.9
20260901045039 71 359 0.0 0.0 0.00 0.03 0.00 100 975.9
20260901044539 72 359 0.0 0.0 0.00 0.03 0.00 100 975.9
20260901044358 72 359 0.0 0.0 0.00 0.03 0.00 100 975.9
20260901043721 72 359 0.0 0.0 0.00 0.03 0.00 100 975.9
20260901043223 72 359 0.0 0.0 0.00 0.03 0.00 100 976.0
20260901043041 72 359 0.0 0.0 0.00 0.03 0.00 100 976.0
20260901042617 72 359 0.0 0.0 0.00 0.03 0.00 100 975.9
20260901042404 72 359 0.0 0.0 0.00 0.03 0.00 100 975.9
20260901041835 73 359 0.0 0.0 0.00 0.03 0.00 100 975.9
20260901041723 73 359 0.0 0.0 0.00 0.03 0.00 100 975.9
20260901041046 73 359 0.0 0.0 0.00 0.03 0.00 100 975.8
20260901040548 73 359 0.0 0.0 0.00 0.03 0.00 100 975.8
20260901040405 73 359 0.0 0.0 0.00 0.03 0.00 100 975.8
20260901035921 74 359 0.0 0.0 0.00 0.25 0.03 100 975.9
20260901035728 74 359 0.0 0.0 0.00 0.25 0.03 100 975.9
20260901035246 74 359 0.0 0.0 0.00 0.25 0.03 100 976.0
20260901035048 74 359 0.0 0.0 0.00 0.25 0.03 100 976.0
20260901034410 74 359 0.0 0.0 0.00 0.25 0.03 100 975.9
20260901033730 75 359 0.0 0.0 0.00 0.25 0.03 99 976.0
20260901033053 75 359 0.0 0.0 0.00 0.25 0.03 98 976.1
20260901032412 75 359 0.0 0.0 0.00 0.25 0.03 98 976.1
20260901031847 75 359 0.0 0.0 0.00 0.25 0.03 97 976.1
20260901031735 75 359 0.0 0.0 0.00 0.25 0.03 97 976.1
20260901031243 75 359 0.0 0.0 0.00 0.25 0.03 97 975.9
20260901031054 75 359 0.0 0.0 0.00 0.25 0.03 97 975.9
20260901030545 75 359 0.0 0.0 0.00 0.25 0.03 97 975.9
20260901030417 75 359 0.0 0.0 0.00 0.25 0.03 97 975.9
20260901025737 76 359 0.0 0.0 0.00 0.25 0.03 97 975.9
20260901025059 76 359 0.0 0.0 0.00 0.25 0.03 96 975.7
20260901024419 76 359 0.0 0.0 0.00 0.25 0.03 96 975.7
20260901023849 76 359 0.0 0.0 0.00 0.25 0.03 95 975.8
20260901023742 76 359 0.0 0.0 0.00 0.25 0.03 95 975.8
20260901023101 76 359 0.0 0.0 0.00 0.25 0.03 95 975.7
20260901022424 76 359 0.0 0.0 0.00 0.25 0.03 95 975.7
20260901021743 76 359 0.0 0.0 0.00 0.25 0.03 95 975.6
20260901021413 76 359 0.0 2.0 0.00 0.25 0.03 94 975.5
20260901021106 76 359 0.0 2.0 0.00 0.25 0.03 94 975.5
20260901020426 76 359 0.0 0.0 0.00 0.25 0.03 94 975.6
20260901015748 76 359 0.0 0.0 0.00 0.25 0.03 93 975.6
20260901015108 76 291 0.0 0.0 0.00 0.25 0.03 93 975.4
20260901014431 76 291 0.0 0.0 0.00 0.25 0.03 93 975.6
20260901013750 76 266 0.0 0.0 0.00 0.25 0.03 93 975.5
20260901013113 76 215 0.0 0.0 0.00 0.25 0.03 93 975.5
20260901012432 76 297 5.0 6.0 0.00 0.25 0.03 93 975.0
20260901011755 77 208 4.0 7.0 0.00 0.25 0.03 92 974.8
20260901011114 77 252 2.0 0.0 0.00 0.25 0.03 92 975.0
20260901010437 77 256 1.0 3.0 0.00 0.25 0.03 91 974.8
20260901005119 78 359 0.0 0.0 0.00 0.25 0.03 88 974.1
20260901004439 78 266 1.0 0.0 0.00 0.25 0.03 86 974.7
20260901003801 78 359 0.0 5.0 0.00 0.25 0.03 86 975.0
20260901003121 78 193 0.0 2.0 0.00 0.25 0.03 85 975.0
20260901002443 78 239 2.0 3.0 0.00 0.25 0.03 84 975.1
20260901002014 79 201 1.0 0.0 0.00 0.25 0.03 83 975.1
20260901001803 79 201 1.0 0.0 0.00 0.25 0.03 83 975.1
20260901001232 79 245 4.0 3.0 0.00 0.25 0.03 82 974.9
20260901001126 79 245 4.0 3.0 0.00 0.25 0.03 82 974.9
20260901000445 79 203 4.0 3.0 0.00 0.25 0.03 81 974.9
20260831235808 79 212 6.0 8.0 0.00 0.25 0.03 80 974.7
20260831235127 80 245 2.0 0.0 0.00 0.25 0.03 79 974.5
20260831233809 80 225 5.0 3.0 0.00 0.25 0.03 78 974.2
20260831233132 80 224 2.0 5.0 0.00 0.25 0.03 77 974.1
20260831232451 80 228 4.0 0.0 0.00 0.25 0.03 77 974.1
20260831225815 80 191 3.0 5.0 0.00 0.25 0.03 73 973.9
20260831225138 81 208 5.0 8.0 0.00 0.25 0.03 72 973.9
20260831224457 81 224 5.0 0.0 0.00 0.25 0.03 70 973.9
20260831223820 81 245 9.0 7.0 0.00 0.25 0.03 69 973.8
20260831222502 82 181 7.0 5.0 0.00 0.25 0.03 68 973.7
20260831221929 82 188 7.0 9.0 0.00 0.25 0.03 68 973.9
20260831221822 82 188 7.0 9.0 0.00 0.25 0.03 68 973.9
20260831221145 82 280 9.0 6.0 0.00 0.25 0.03 67 973.8
20260831220816 82 198 8.0 9.0 0.00 0.25 0.03 66 973.8
20260831220504 82 198 8.0 9.0 0.00 0.25 0.03 66 973.8
20260831215827 83 228 8.0 6.0 0.00 0.25 0.03 65 973.8
20260831215357 83 186 6.0 8.0 0.00 0.25 0.03 65 973.6
20260831215146 83 186 6.0 8.0 0.00 0.25 0.03 65 973.6
20260831214509 83 194 6.0 4.0 0.00 0.25 0.03 65 973.5
20260831214026 83 165 10.0 14.0 0.00 0.25 0.03 65 973.5
20260831213828 83 165 10.0 14.0 0.00 0.25 0.03 65 973.5
20260831213151 83 207 10.0 8.0 0.00 0.25 0.03 64 973.5
20260831212510 83 193 8.0 8.0 0.00 0.25 0.03 64 973.6
20260831212102 83 222 5.0 9.0 0.00 0.25 0.03 63 973.6
20260831211833 83 222 5.0 9.0 0.00 0.25 0.03 63 973.6
20260831211153 83 204 6.0 5.0 0.00 0.25 0.03 63 973.6
20260831210516 83 198 9.0 8.0 0.00 0.25 0.03 62 973.6
20260831210214 83 274 8.0 8.0 0.00 0.25 0.03 64 973.6
20260831205835 83 274 8.0 8.0 0.00 0.25 0.03 64 973.6